Location: Newark
(41.6500°N, 71.4833°W)
Time: 09:40:41
(UTC+00:00)

Courier 1B - Pass Details

Date: 26 January 2020
Orbit: 962 x 1209 km, 28.3° (Epoch: 25 February)

Event Time Altitude Azimuth Distance (km) Brightness Sun altitude
Rises 05:57:01 0° 209° (SSW) 3,768 - -64.0°
Reaches altitude 10° 06:01:07 10° 186° (S) 2,871 - -63.6°
Maximum altitude 06:04:37 14° 156° (SSE) 2,606 - -63.2°
Drops below altitude 10° 06:08:13 10° 126° (SE) 2,969 - -62.8°
Sets 06:12:35 0° 103° (ESE) 3,986 - -62.2°
